Content
SEND FEEDBACK

Daily
Averages
Monthly
Summary
Canada

MONCTON, NEW BRUNSWICK


Home > North America > Canada > New Brunswick
Elevation: 232 feet     Latitude: 46 07N     Longitude: 064 41W

WEATHER
 
SELECT A DAY
Number of Records: 202,997;   Date Range: 1/1/95 - 7/30/14
 
SHARE

PRINT THIS DATA

[ ← Previous Day ]
WEATHER ALMANAC - JANUARY 21, 2013
[ Next Day → ]
[ °C ]   °F
Weather ElementAverageHighLow
Temperature12.4 °F26.6 °F (1:00 am)6.8 °F (11:00 pm)
Dewpoint-3.4 °F8.6 °F (1:00 am)-7.6 °F (8:00 pm)
Humidity47.1 %57 % (5:00 am)27 % (2:00 pm)
Barometer29.79 in29.99 in (11:00 pm)29.51 in (1:00 am)
Wind Speed22 mph32.2 mph (8:00 am)
Wind Gust44.9 mph (2:00 am)
Weather ElementAverage
Visibility15 mi
Wind DirectionWSW (246.7 °)

Weather ElementTotal
Precipitation---
Heating Degree Days48.3 (Base 65)
Averaged from 27 records on January 21, 2013
WEATHER CONDITIONS BREAKOUT
WIND DIRECTION BREAKOUT
WEATHER BY HOUR - JANUARY 21, 2013
[ °C ]   °F
Local TimeTemperatureDewpointHumidityBarometerVisibilityWind DirectionWind SpeedGust SpeedPrecipitationEventsConditions
1:00 AM26.6 °F8.6 °F47 %29.51 in15.0 miWSW (250°)29.9 mph41.4 mphClear
2:00 AM23.0 °F8.0 °F37 %29.55 in15.0 miWSW (250°)31.1 mph
2:00 AM23.0 °F6.8 °F50 %29.55 in15.0 miWSW (250°)27.6 mph44.9 mphClear
3:00 AM19.4 °F3.2 °F49 %29.60 in15.0 miWSW (250°)26.5 mph41.4 mphClear
4:00 AM14.0 °F-2.2 °F49 %29.63 in15.0 miWSW (250°)27.6 mph43.7 mphClear
5:00 AM12.2 °F-0.4 °F57 %29.66 in15.0 miWSW (250°)24.2 mph40.3 mphClear
6:00 AM10.4 °F-2.2 °F57 %29.68 in15.0 miWSW (250°)25.3 mph38.0 mphClear
7:00 AM10.4 °F-4.0 °F52 %29.70 in15.0 miWSW (240°)19.6 mph32.2 mphClear
8:00 AM9.0 °F-5.0 °F38 %29.72 in15.0 miWSW (240°)29.9 mph
8:00 AM8.6 °F-4.0 °F57 %29.72 in15.0 miWSW (240°)32.2 mph40.3 mphClear
9:00 AM8.6 °F-5.8 °F52 %29.75 in15.0 miWSW (240°)27.6 mph42.6 mphClear
10:00 AM8.6 °F-5.8 °F52 %29.79 in15.0 miWSW (250°)31.1 mph41.4 mphClear
11:00 AM10.4 °F-5.8 °F48 %29.81 in15.0 miWSW (250°)25.3 mph33.4 mphClear
12:00 PM12.2 °F-5.8 °F45 %29.82 in15.0 miWSW (240°)25.3 mph32.2 mphClear
1:00 PM12.2 °F-5.8 °F45 %29.82 in15.0 miWSW (250°)24.2 mph29.9 mphClear
2:00 PM13.0 °F-6.0 °F27 %29.83 in15.0 miWSW (250°)24.2 mph
2:00 PM14.0 °F-5.8 °F41 %29.83 in15.0 miWSW (250°)25.3 mph32.2 mphClear
3:00 PM14.0 °F-5.8 °F41 %29.85 in15.0 miWSW (240°)19.6 mph27.6 mphClear
4:00 PM12.2 °F-5.8 °F45 %29.87 in15.0 miWSW (250°)19.6 mph29.9 mphPartly Cloudy
5:00 PM12.2 °F-5.8 °F45 %29.89 in15.0 miSW (230°)15.0 mph21.9 mphPartly Cloudy
6:00 PM10.4 °F-5.8 °F48 %29.91 in15.0 miWSW (250°)11.5 mph19.6 mphClear
7:00 PM8.6 °F-5.8 °F52 %29.93 in15.0 miWSW (250°)11.5 mphClear
8:00 PM9.0 °F-7.0 °F31 %29.94 in15.0 miWSW (250°)13.8 mphClear
8:00 PM8.6 °F-7.6 °F48 %29.94 in15.0 miWSW (250°)13.8 mphPartly Cloudy
9:00 PM8.6 °F-5.8 °F52 %29.95 in15.0 miWSW (250°)11.5 mphScattered Clouds
10:00 PM8.6 °F-5.8 °F52 %29.97 in15.0 miWSW (240°)10.4 mphMostly Cloudy
11:00 PM6.8 °F-5.8 °F56 %29.99 in15.0 miWSW (250°)10.4 mphMostly Cloudy
Hourly data recorded from CYQM, located miles away from Moncton, New Brunswick







STORIES FROM OUR PARTNERS